TimeMDT,TemperatureF,Dew PointF,Humidity,Sea Level PressureIn,VisibilityMPH,Wind Direction,Wind SpeedMPH,Gust SpeedMPH,PrecipitationIn,Events,Conditions,WindDirDegrees,DateUTC
12:56 AM,34.0,-9999,N/A,30.34,-9999.0,NNW,18.4,-,N/A,,Unknown,330,2012-10-04 06:56:00
1:56 AM,34.0,-9999,N/A,30.36,-9999.0,NW,15.0,-,N/A,,Unknown,320,2012-10-04 07:56:00
2:56 AM,34.0,-9999,N/A,30.35,-9999.0,NNW,19.6,-,N/A,,Unknown,330,2012-10-04 08:56:00
3:56 AM,33.1,-9999,N/A,30.37,-9999.0,NNW,12.7,-,0.01,,Unknown,330,2012-10-04 09:56:00
4:56 AM,34.0,34.0,100,30.37,-9999.0,NW,12.7,-,N/A,,Unknown,320,2012-10-04 10:56:00
5:56 AM,34.0,33.1,96,30.38,-9999.0,NNW,12.7,-,N/A,,Unknown,330,2012-10-04 11:56:00
6:56 AM,34.0,32.0,92,30.38,-9999.0,NNW,10.4,-,N/A,,Unknown,330,2012-10-04 12:56:00
7:56 AM,35.1,32.0,89,30.38,-9999.0,NNW,16.1,-,N/A,,Unknown,330,2012-10-04 13:56:00
8:56 AM,35.1,30.9,85,30.38,-9999.0,NNW,17.3,-,N/A,,Unknown,340,2012-10-04 14:56:00
9:56 AM,36.0,28.9,76,30.39,-9999.0,NNW,13.8,-,N/A,,Unknown,340,2012-10-04 15:56:00
10:56 AM,39.0,28.0,65,30.38,-9999.0,NNW,17.3,-,N/A,,Unknown,340,2012-10-04 16:56:00
11:56 AM,39.9,27.0,60,30.38,-9999.0,NNW,11.5,-,N/A,,Unknown,330,2012-10-04 17:56:00
12:56 PM,41.0,27.0,57,30.37,-9999.0,NW,9.2,-,N/A,,Unknown,310,2012-10-04 18:56:00
1:56 PM,42.1,26.1,53,30.35,-9999.0,NNW,13.8,-,N/A,,Unknown,330,2012-10-04 19:56:00
2:56 PM,42.1,25.0,51,30.35,-9999.0,NNW,13.8,-,N/A,,Unknown,330,2012-10-04 20:56:00
3:56 PM,42.1,24.1,49,30.33,-9999.0,NW,12.7,-,N/A,,Unknown,320,2012-10-04 21:56:00
4:56 PM,42.1,26.1,53,30.34,-9999.0,NNW,16.1,-,N/A,,Unknown,330,2012-10-04 22:56:00
5:56 PM,41.0,26.1,55,30.35,-9999.0,NW,11.5,-,N/A,,Unknown,320,2012-10-04 23:56:00
6:56 PM,39.0,27.0,62,30.35,-9999.0,North,10.4,-,N/A,,Unknown,350,2012-10-05 00:56:00
7:56 PM,34.0,26.1,73,30.37,-9999.0,North,11.5,-,N/A,,Unknown,350,2012-10-05 01:56:00
8:56 PM,32.0,26.1,79,30.38,-9999.0,North,9.2,-,N/A,,Unknown,360,2012-10-05 02:56:00
9:56 PM,32.0,25.0,75,30.39,-9999.0,North,6.9,-,N/A,,Unknown,360,2012-10-05 03:56:00
10:56 PM,27.0,23.0,85,30.39,-9999.0,NW,3.5,-,N/A,,Unknown,310,2012-10-05 04:56:00
11:56 PM,26.1,21.9,84,30.38,-9999.0,NW,4.6,-,N/A,,Unknown,320,2012-10-05 05:56:00